Flag for Moldova Weather past 2 weeks in Cahul, Moldova

Now
67 °F

Passing clouds.


Feels Like: 67 °F
Forecast: 49 / 72 °F
Wind: 5 mph from South

Location: Galati

Current Time: Oct 20, 2014 at 2:23:43 PM

Latest Report: Oct 20, 2014 at 2:00 PM


Visibility: 13 mi

Pressure: 30.02 "Hg

Humidity: 52%

Dew point: 49 °F

Location of CahulLocation

Historic Weather in Cahul — Graph

°F

Cahul temperature yesterday

Maximum temperature yesterday: 56 °F (at 5:00 PM)
Minimum temperature yesterday: 37 °F (at 8:00 AM)
Average temperature yesterday: 47 °F

Past Weeks' High & Low Weather Summary

 TemperatureHumidityPressure
High75 °F (Oct 17, 3:00 PM)100% (Oct 7, 1:00 PM)30.46 "Hg (Oct 7, 1:00 PM)
Low37 °F (Oct 19, 8:00 AM)26% (Oct 5, 2:00 PM)29.75 "Hg (Oct 16, 5:00 AM)
Average56 °F79%30.13 "Hg
* Reported Oct 5 1:00 PM — Oct 20 1:00 PM, Cahul, Weather by CustomWeather, © 2014

Note: Actual official high and low records may vary slightly from our data, if they occured in-between our weather recording intervals... More about our weather records

Advertising

Cahul weather history for previous 24 hours

 ConditionsComfort  
Time TempWeatherWind HumidityBarometerVisibility
1:00 PM
Oct 20
63 °FScattered clouds.5 mph58%30.06 "Hg12 mi
12:00 PM59 °FPassing clouds.5 mph65%30.08 "Hg12 mi
11:00 AM53 °FPassing clouds.6 mph74%30.09 "Hg12 mi
10:00 AM50 °FPassing clouds.5 mph78%30.11 "Hg12 mi
9:00 AM48 °FPartly sunny.5 mph82%30.11 "Hg6 mi
8:00 AM44 °FScattered clouds.5 mph90%30.12 "Hg6 mi
5:00 AM44 °FClear.3 mph81%30.19 "Hg6 mi
4:00 AM45 °FClear.3 mph76%30.22 "Hg6 mi
3:00 AM46 °FClear.5 mph78%30.24 "Hg6 mi
2:00 AM46 °FClear.3 mph79%30.27 "Hg6 mi
1:00 AM46 °FClear.2 mph77%30.30 "Hg6 mi
12:00 AM47 °FClear.2 mph77%30.32 "Hg6 mi
11:00 PM
Oct 19
46 °FPassing clouds.2 mph65%30.33 "Hg6 mi
10:00 PM47 °FClear.1 mph59%30.34 "Hg12 mi
9:00 PM49 °FPassing clouds.1 mph51%30.35 "Hg12 mi
8:00 PM49 °FPassing clouds.1 mph57%30.37 "Hg12 mi
7:00 PM50 °FPassing clouds.1 mph60%30.36 "Hg12 mi
6:00 PM54 °FSunny.1 mph50%30.37 "Hg12 mi
5:00 PM56 °FSunny.1 mph45%30.39 "Hg12 mi
4:00 PM56 °FSunny.2 mph35%30.40 "Hg12 mi
3:00 PM55 °FSunny.1 mph35%30.42 "Hg12 mi
2:00 PM53 °FSunny.2 mph42%30.44 "Hg12 mi
Weather by CustomWeather, © 2014

See weather overviewHow to use our weather pages